Tracking 18852 objects as of 24-Nov-2017
HD Live streaming from Space Station
objects crossing your sky now

FENGYUN 1C DEB

Track FENGYUN 1C DEB now!
10-day predictions


NORAD ID: 36712
Int'l Code: 1999-025EAJ
Perigee: 678.0 km
Apogee: 758.3 km
Inclination: 98.9 °
Period: 99.0 minutes
Semi major axis: 7089 km
RCS: 0.0098 m2 (small)
Launch date: May 10, 1999
Source: People's Republic of China (PRC)
Launch site: Taiyaun Space Center, China (TSC)

Note: This is SATELLITE DEBRIS
aabbcc
Your satellite tracking list
Your tracking list is empty




NASA's NSSDC Master Catalog

Two Line Element Set (TLE):
1 36712U 99025EAJ 17324.77915740 +.00002363 +00000-0 +55553-3 0  9991
2 36712 098.9495 166.2413 0056606 228.7752 130.8556 14.54498240164790
Source of the keplerian elements: AFSPC